EW7318 Cranston RI US current weather conditions

sailwx.info

Wind from 194

Air temperature -1.7° C
Dewpoint -4.5° C

Last reported at 2020-Jan-24 11:03 UTC.
Time now 2020-Jan-24 11:44 UTC

Location: N 41°47' W 071°29'.
View on Google Maps.

See reports from other nearby stations

  
Tides and Currents Weather Stations Pressure Air Temp Water Temp Dewpoint Dewpoint Depression Visibility Wind Speed Wind Dir Waves Ship Positions
date/time (UTC)wind fromknots sea level pressurealtimeterstation pressurevisibilityair tempwater tempwave heightnotes
2020-Jan-24 11:03 194 -1.7
2020-Jan-24 10:52 194 -1.7
2020-Jan-24 10:47 194 -1.7
2020-Jan-24 10:41 194 -1.7
2020-Jan-24 10:34 194 -1.7
2020-Jan-24 10:29 194 -1.7
2020-Jan-24 10:23 194 -1.7
2020-Jan-24 10:18 194 -1.7
2020-Jan-24 10:12 194 -1.7
2020-Jan-24 10:06 194 -1.7
2020-Jan-24 10:01 194 -1.7
2020-Jan-24 09:55 194 -1.1
2020-Jan-24 09:49 194 -1.1
2020-Jan-24 09:42
2020-Jan-24 09:35 194 -1.1
2020-Jan-24 09:30 194 -1.1
2020-Jan-24 09:24 194 -1.1
2020-Jan-24 09:18 194 -1.1
2020-Jan-24 09:12 194 -1.1
2020-Jan-24 09:07 194 -1.1
2020-Jan-24 09:00 194 0 gusting 0 -1.1
2020-Jan-24 08:54 194 -1.7
2020-Jan-24 08:48 194 -1.7
2020-Jan-24 08:43 194 -1.7
2020-Jan-24 08:37
2020-Jan-24 08:32
2020-Jan-24 08:27
2020-Jan-24 08:15
2020-Jan-24 08:10
2020-Jan-24 08:04 194 -1.7
2020-Jan-24 07:59 194 -1.7
2020-Jan-24 07:54 194 -1.7
2020-Jan-24 07:46 194 -1.7
2020-Jan-24 07:40 194 -1.7
2020-Jan-24 07:35 194 -1.7
2020-Jan-24 07:29 194 -1.7
2020-Jan-24 07:23 194 -1.1
2020-Jan-24 07:16 194 -1.7
2020-Jan-24 07:09
2020-Jan-24 07:03
2020-Jan-24 06:56
2020-Jan-24 06:51
2020-Jan-24 06:44
2020-Jan-24 06:37
2020-Jan-24 06:32
2020-Jan-24 06:26
2020-Jan-24 06:21
2020-Jan-24 06:16
2020-Jan-24 06:10
2020-Jan-24 06:04
2020-Jan-24 05:57
2020-Jan-24 05:52
2020-Jan-24 05:46
2020-Jan-24 05:40
2020-Jan-24 05:34
2020-Jan-24 05:28
2020-Jan-24 05:22
2020-Jan-24 05:17
2020-Jan-24 05:10
2020-Jan-24 05:04
2020-Jan-24 04:58
2020-Jan-24 04:52
2020-Jan-24 04:46
2020-Jan-24 04:40
2020-Jan-24 04:34
2020-Jan-24 04:27
2020-Jan-24 04:21
2020-Jan-24 04:15
2020-Jan-24 04:08
2020-Jan-24 04:03
2020-Jan-24 03:56
2020-Jan-24 03:49
2020-Jan-24 03:43
2020-Jan-24 03:37
2020-Jan-24 03:31
2020-Jan-24 03:25
2020-Jan-24 03:19
2020-Jan-24 03:13
2020-Jan-24 03:07
2020-Jan-24 03:01
2020-Jan-24 02:55 193 0 gusting 0 2.2
2020-Jan-24 02:49 193 0 gusting 0 2.2
2020-Jan-24 02:43 190 2.2
2020-Jan-24 02:37
2020-Jan-24 02:32
2020-Jan-24 02:27
2020-Jan-24 02:19
2020-Jan-24 02:13
2020-Jan-24 02:07
2020-Jan-24 02:01
2020-Jan-24 01:55
2020-Jan-24 01:49
2020-Jan-24 01:44
2020-Jan-24 01:39
2020-Jan-24 01:28 184 2.2
2020-Jan-24 01:23 184 2.2
2020-Jan-24 01:17 184 2.2
2020-Jan-24 01:10 184 2.2
2020-Jan-24 01:04 184 2.2
2020-Jan-24 00:58 185 0 gusting 0 2.2
2020-Jan-24 00:52 163 2.2
2020-Jan-24 00:46 153 2.8
2020-Jan-24 00:40 161 2.8
2020-Jan-24 00:34 160 2.8
2020-Jan-24 00:28 177 2.8
2020-Jan-24 00:22 195 0 gusting 2 2.8
2020-Jan-24 00:15 193 2.8
2020-Jan-24 00:09 257 0 gusting 2 2.8
2020-Jan-24 00:04 184 2.2
2020-Jan-23 23:57 167 2.8
2020-Jan-23 23:51 181 2.8
2020-Jan-23 23:43 187 2.8
2020-Jan-23 23:37 182 2.8
2020-Jan-23 23:31 172 2.8
2020-Jan-23 23:22 176 2.8
2020-Jan-23 23:16 184 0 gusting 2 2.8
2020-Jan-23 23:10 207 2 gusting 2 2.8
2020-Jan-23 23:04 187 2.8
2020-Jan-23 22:59 187 2.8
2020-Jan-23 22:52 187 2.8
2020-Jan-23 22:46
2020-Jan-23 22:40
2020-Jan-23 22:35 185 2.8
2020-Jan-23 22:29 185 2.8
2020-Jan-23 22:22 185 2.8
2020-Jan-23 22:16
2020-Jan-23 22:10
2020-Jan-23 22:05
2020-Jan-23 21:58
2020-Jan-23 21:51
2020-Jan-23 21:45
2020-Jan-23 21:39
2020-Jan-23 21:34
2020-Jan-23 21:28
2020-Jan-23 21:23
2020-Jan-23 21:16
2020-Jan-23 21:10
2020-Jan-23 21:03
2020-Jan-23 20:58
2020-Jan-23 20:52
2020-Jan-23 20:46
2020-Jan-23 20:39
2020-Jan-23 20:34
2020-Jan-23 20:28
2020-Jan-23 20:22
2020-Jan-23 20:16
2020-Jan-23 20:11
2020-Jan-23 20:06
2020-Jan-23 19:59
2020-Jan-23 19:54
2020-Jan-23 19:48
2020-Jan-23 19:41
2020-Jan-23 19:36
2020-Jan-23 19:30
2020-Jan-23 19:25
2020-Jan-23 19:19
2020-Jan-23 19:13
2020-Jan-23 19:07
2020-Jan-23 19:01
2020-Jan-23 18:55
2020-Jan-23 18:49
2020-Jan-23 18:43
2020-Jan-23 18:37
2020-Jan-23 18:31
2020-Jan-23 18:25
2020-Jan-23 18:18
2020-Jan-23 18:13
2020-Jan-23 18:06
2020-Jan-23 18:00
2020-Jan-23 17:55
2020-Jan-23 17:49
2020-Jan-23 17:42
2020-Jan-23 17:37
2020-Jan-23 17:31
2020-Jan-23 17:25
2020-Jan-23 17:19
2020-Jan-23 17:14
2020-Jan-23 17:09
2020-Jan-23 17:04
2020-Jan-23 16:58
2020-Jan-23 16:52
2020-Jan-23 16:46
2020-Jan-23 16:40
2020-Jan-23 16:34
2020-Jan-23 16:28
2020-Jan-23 16:22
2020-Jan-23 16:16
2020-Jan-23 16:10
2020-Jan-23 16:02
2020-Jan-23 15:54
2020-Jan-23 15:49
2020-Jan-23 15:42
2020-Jan-23 15:36
2020-Jan-23 15:31
2020-Jan-23 15:25
2020-Jan-23 15:18
2020-Jan-23 15:12
2020-Jan-23 15:07 162 -5.6
2020-Jan-23 15:01 162 -5.6
2020-Jan-23 14:55 162 -5.6
2020-Jan-23 14:48 180 0 gusting 3 -5.6
2020-Jan-23 14:42
2020-Jan-23 14:36
2020-Jan-23 14:31 176 1 gusting 1 -6.1
2020-Jan-23 14:24 176 1 gusting 1 -6.1
2020-Jan-23 14:18 153 -6.7
2020-Jan-23 14:12 188 1 gusting 2 -6.7
2020-Jan-23 14:06 188 1 gusting 2 -6.7
2020-Jan-23 14:00 190 1 gusting 1 -6.7
2020-Jan-23 13:54 177 0 gusting 1 -6.7
2020-Jan-23 13:48 199 0 gusting 1 -7.2
2020-Jan-23 13:42 183 -7.2
2020-Jan-23 13:36 183 -7.2
2020-Jan-23 13:30 179 -7.2
2020-Jan-23 13:24 188 -7.2
2020-Jan-23 13:19 188 -7.2
2020-Jan-23 13:13 188 -7.2
2020-Jan-23 13:07 188 -7.8
2020-Jan-23 13:02 188 -7.8
2020-Jan-23 12:54 188 -7.8
2020-Jan-23 12:48 188 -7.8
2020-Jan-23 12:42
2020-Jan-23 12:37 188 -7.8
2020-Jan-23 12:31 188 -7.8
2020-Jan-23 12:25 188 -7.8
2020-Jan-23 12:19 188 -7.8
2020-Jan-23 12:13 187 -7.8
2020-Jan-23 12:07 187 -7.8
2020-Jan-23 12:01 187 -7.8
2020-Jan-23 11:55 188 -7.8
2020-Jan-23 11:49 188 -7.8
2020-Jan-23 11:43 189 -7.8
2020-Jan-23 11:38 189 -7.8
2020-Jan-23 11:33 189 -7.8
2020-Jan-23 11:28 185 -7.8
2020-Jan-23 11:22 185 -7.8
2020-Jan-23 11:16 185 -7.8
2020-Jan-23 11:10 186 -7.8
2020-Jan-23 11:04 184 -8.3
2020-Jan-23 10:58 184 -8.3
2020-Jan-23 10:52 183 -8.3
2020-Jan-23 10:46 184 -8.3
2020-Jan-23 10:40 183 -8.3
2020-Jan-23 10:34 184 -8.3
2020-Jan-23 10:28 183 -8.3
2020-Jan-23 10:23 183 -8.3
2020-Jan-23 10:17 183 -8.3
2020-Jan-23 10:11 183 -8.3
2020-Jan-23 10:06 183 -8.3
2020-Jan-23 10:00 183 -8.3
2020-Jan-23 09:53 183 -8.3
2020-Jan-23 09:47 183 -8.3
2020-Jan-23 09:41 183 -8.3
2020-Jan-23 09:34 183 -7.8
2020-Jan-23 09:27 183 -7.8
2020-Jan-23 09:21 183 -7.8
2020-Jan-23 09:15 183 -7.8
2020-Jan-23 09:09 183 -7.8
2020-Jan-23 09:03 183 -7.8
2020-Jan-23 08:57 183 -7.2
2020-Jan-23 08:51 183 -7.2
2020-Jan-23 08:45 183 -7.2
2020-Jan-23 08:39 183 -7.2
2020-Jan-23 08:33 183 0 gusting 0 -7.2
2020-Jan-23 08:27 183 0 gusting 0 -7.2
2020-Jan-23 08:22 183 -7.2
2020-Jan-23 08:16 183 -7.2
2020-Jan-23 08:10 183 -7.2
2020-Jan-23 08:04 183 -7.2
2020-Jan-23 07:58 183 0 gusting 0 -7.2
2020-Jan-23 07:51 183 -7.2
2020-Jan-23 07:46 183 0 gusting 0 -7.2
2020-Jan-23 07:40 183 -7.2
2020-Jan-23 07:34 183 -7.2
2020-Jan-23 07:28 183 -7.2
2020-Jan-23 07:22 183 -7.2
2020-Jan-23 07:17 183 -7.2
2020-Jan-23 07:11 183 -7.2
2020-Jan-23 07:05 183 -7.2
2020-Jan-23 06:59 183 -7.2
2020-Jan-23 06:53 183 -7.2
2020-Jan-23 06:46 183 -7.2
2020-Jan-23 06:41 182 -6.7
2020-Jan-23 06:35 182 -6.7
2020-Jan-23 06:29 181 -6.7
2020-Jan-23 06:24 181 -6.7
2020-Jan-23 06:18 181 -6.7
2020-Jan-23 06:11 182 -6.7
2020-Jan-23 06:05 186 -6.7
2020-Jan-23 05:59 185 -6.7
2020-Jan-23 05:52 188 0 gusting 0 -6.7
2020-Jan-23 05:46 172 -6.7
2020-Jan-23 05:40 156 -6.7
2020-Jan-23 05:34 178 0 gusting 0 -6.1
2020-Jan-23 05:29 175 -6.1
2020-Jan-23 05:23 175 -6.1
2020-Jan-23 05:17 175 -6.1
2020-Jan-23 05:10 176 -5.6
2020-Jan-23 05:04 174 -5.6
2020-Jan-23 04:59 174 -5.6
2020-Jan-23 04:53 174 -5.6
2020-Jan-23 04:47 174 -5.0
2020-Jan-23 04:41 173 -5.0
2020-Jan-23 04:35 169 -5.6
2020-Jan-23 04:29 175 -5.0
2020-Jan-23 04:23 176 -5.0
2020-Jan-23 04:17 177 -5.0
2020-Jan-23 04:11 164 -5.0
2020-Jan-23 04:06 164 -4.4
2020-Jan-23 04:01 352 -4.4
2020-Jan-23 03:55 255 0 gusting 0 -4.4
2020-Jan-23 03:49 178 -3.9
2020-Jan-23 03:42 177 -3.9
2020-Jan-23 03:36 177 -3.3
2020-Jan-23 03:30 174 -3.3
2020-Jan-23 03:25 187 -2.8
2020-Jan-23 03:19 187 -2.8
2020-Jan-23 03:13 186 -2.8
2020-Jan-23 03:07 186 -2.8
2020-Jan-23 03:01 186 -2.8
2020-Jan-23 02:55 191 0 gusting 0 -2.8
2020-Jan-23 02:49 191 0 gusting 0 -2.8
2020-Jan-23 02:44 187 0 gusting 0 -3.3
2020-Jan-23 02:38 192 0 gusting 0 -3.3
2020-Jan-23 02:33 200 -3.9
2020-Jan-23 02:27 190 -3.9
2020-Jan-23 02:21 187 -3.9
2020-Jan-23 02:16 191 1 gusting 1 -3.9
2020-Jan-23 02:10 189 0 gusting 0 -3.9
2020-Jan-23 02:04 188 -3.9
2020-Jan-23 01:58 188 -3.9
2020-Jan-23 01:53 188 -3.9
2020-Jan-23 01:47 188 -3.9
2020-Jan-23 01:41 188 -3.9
2020-Jan-23 01:35 188 -3.9
2020-Jan-23 01:29 189 -3.3
2020-Jan-23 01:23 179 -3.3
2020-Jan-23 01:17 178 -3.3
2020-Jan-23 01:11 178 -3.3
2020-Jan-23 01:05 178 -3.3
2020-Jan-23 00:59 178 -3.3
2020-Jan-23 00:53 176 -3.3
2020-Jan-23 00:48 177 -3.3
2020-Jan-23 00:42 177 -3.3
2020-Jan-23 00:36 167 -3.3
2020-Jan-23 00:30 167 -3.3
2020-Jan-23 00:23 167 -3.3
2020-Jan-23 00:16 173 -3.3
2020-Jan-23 00:10 170 -3.3
2020-Jan-23 00:05 173 -3.3
2020-Jan-22 23:59 170 -2.8
2020-Jan-22 23:53 168 -2.8
2020-Jan-22 23:46 170 -2.8
2020-Jan-22 23:40 167 -2.8
2020-Jan-22 23:33 209 -2.8
2020-Jan-22 23:27 209 -2.2
2020-Jan-22 23:22 209 -2.2
2020-Jan-22 23:17 217 -2.2
2020-Jan-22 23:11 168 -2.2
2020-Jan-22 23:04 209 -2.2
2020-Jan-22 22:58 209 -1.7
2020-Jan-22 22:52 169 -1.7
2020-Jan-22 22:46 167 -1.7
2020-Jan-22 22:41 168 -1.1
2020-Jan-22 22:35 177 -1.1
2020-Jan-22 22:29 180 -1.1
2020-Jan-22 22:23 193 -1.1
2020-Jan-22 22:17 167 -1.1
2020-Jan-22 22:12
2020-Jan-22 22:06
2020-Jan-22 22:00
2020-Jan-22 21:53
2020-Jan-22 21:48
2020-Jan-22 21:43
2020-Jan-22 21:37
2020-Jan-22 21:31
2020-Jan-22 21:26
2020-Jan-22 21:19
2020-Jan-22 21:14
2020-Jan-22 21:09
2020-Jan-22 21:02
2020-Jan-22 20:57
2020-Jan-22 20:52
2020-Jan-22 20:46
2020-Jan-22 20:40
2020-Jan-22 20:34
2020-Jan-22 20:27
2020-Jan-22 20:21
2020-Jan-22 20:16
2020-Jan-22 20:10 319 1 gusting 3 2.2
2020-Jan-22 20:04 319 1 gusting 3 2.2
2020-Jan-22 19:57 319 1 gusting 3 2.2
2020-Jan-22 19:51
2020-Jan-22 19:45
2020-Jan-22 19:38
2020-Jan-22 19:32
2020-Jan-22 19:26
2020-Jan-22 19:20
2020-Jan-22 19:15
2020-Jan-22 19:07
2020-Jan-22 19:02 002 1 gusting 1 2.2
2020-Jan-22 18:55 002 1 gusting 1 2.2
2020-Jan-22 18:49 002 1 gusting 6 2.2
2020-Jan-22 18:43 043 0 gusting 2 2.2
2020-Jan-22 18:37
2020-Jan-22 18:31
2020-Jan-22 18:25
2020-Jan-22 18:19
2020-Jan-22 18:12
2020-Jan-22 18:07
2020-Jan-22 18:02 251 1 gusting 1 2.2
2020-Jan-22 17:56 251 1 gusting 1 2.2
2020-Jan-22 17:49 251 1 gusting 1 2.2
2020-Jan-22 17:43
2020-Jan-22 17:38
2020-Jan-22 17:32
2020-Jan-22 17:27
2020-Jan-22 17:19
2020-Jan-22 17:13
2020-Jan-22 17:07
2020-Jan-22 17:01
2020-Jan-22 16:56
2020-Jan-22 16:49
2020-Jan-22 16:43
2020-Jan-22 16:36
2020-Jan-22 16:29
2020-Jan-22 16:22
2020-Jan-22 16:15
2020-Jan-22 16:10
2020-Jan-22 16:03
2020-Jan-22 15:57
2020-Jan-22 15:52
2020-Jan-22 15:46
2020-Jan-22 15:40
2020-Jan-22 15:34
2020-Jan-22 15:28
2020-Jan-22 15:22
2020-Jan-22 15:16
2020-Jan-22 15:10
2020-Jan-22 15:04
2020-Jan-22 14:59
2020-Jan-22 14:54 174 -8.3
2020-Jan-22 14:48 174 -8.3
2020-Jan-22 14:42 174 -8.3
2020-Jan-22 14:36 170 -8.3
2020-Jan-22 14:30
2020-Jan-22 14:24
2020-Jan-22 14:18 161 -8.3
2020-Jan-22 14:11 161 -8.3
2020-Jan-22 14:06 161 -8.3
2020-Jan-22 14:00 161 -8.3
2020-Jan-22 13:54 161 -8.3
2020-Jan-22 13:48 161 -8.9
2020-Jan-22 13:41 161 -8.9
2020-Jan-22 13:35 161 -8.9
2020-Jan-22 13:29 161 -9.4
2020-Jan-22 13:24 161 -9.4
2020-Jan-22 13:18 161 -9.4
2020-Jan-22 13:12 161 -9.4
2020-Jan-22 13:05 161 -9.4
2020-Jan-22 12:59 161 -9.4
2020-Jan-22 12:53 161 -10.0
2020-Jan-22 12:46 161 -10.0
2020-Jan-22 12:40 160 -10.0
2020-Jan-22 12:34 160 -10.0
2020-Jan-22 12:28 160 -10.0
2020-Jan-22 12:22 160 -10.0
2020-Jan-22 12:16 156 -10.6
2020-Jan-22 12:10 148 -10.6
2020-Jan-22 12:04 155 -10.6
2020-Jan-22 11:57 163 -11.1
2020-Jan-22 11:51 177 -11.1
2020-Jan-22 11:45 186 -11.1
2020-Jan-22 11:39 177 -11.1
2020-Jan-22 11:33 177 -11.1
2020-Jan-22 11:27 186 -11.1